• Join FlightAware (Why Join?)
  • Login
  • US Flag GB Flag 
14:20 EST


 

Airport Tracker/Info


-or-


 

Live Flight TrackerFlight Track Log ✈ N27XP ✈ 09-Dec-2013 ✈ KHEF - KCLT

Flight Track Log - Related Links

Times and Time Zones

All times are in EST time to prevent confusion due to time zone crossing. See the N27XP flight status page for this flight to view local times or setup timezone preferences in your user account.

Time Position Orientation Groundspeed Altitude Reporting Facility
EST Latitude Longitude Course Direction KTS MPH feet Rate Location/Type
12:25 38.6833 -77.5167 256° West 203 234 1,500  Level Potomac TRACON
12:26 38.6667 -77.6000 256° West 241 277 4,200 3,091 Climbing Potomac TRACON
12:27 38.5944 -77.6025 182° South 234 269 8,300 3,248 Climbing Washington Center
12:28 38.5353 -77.6328 202° Southwest 227 261 11,400 2,723 Climbing Washington Center
12:29 38.4867 -77.6844 220° Southwest 227 261 13,700 1,983 Climbing Washington Center
12:30 38.4314 -77.7464 221° Southwest 249 287 15,300 1,672 Climbing Washington Center
12:31 38.3697 -77.8108 219° Southwest 274 315 17,100 1,426 Climbing Washington Center
12:32 38.3036 -77.8831 221° Southwest 294 338 18,200 1,220 Climbing Washington Center
12:33 38.2375 -77.9578 222° Southwest 312 359 19,500 1,261 Climbing Washington Center
12:34 38.1692 -78.0347 222° Southwest 317 365 20,700 1,230 Climbing Washington Center
12:35 38.0989 -78.1117 221° Southwest 322 371 22,000 1,059 Climbing Washington Center
12:36 38.0283 -78.1883 221° Southwest 327 376 22,800 610 Climbing Washington Center
12:37 37.9600 -78.2675 222° Southwest 327 376 23,200 446 Climbing Washington Center
12:38 37.8914 -78.3414 220° Southwest 351 404 23,700 295 Climbing Washington Center
12:39 37.8144 -78.4256 221° Southwest 361 415 23,800 151 Climbing Washington Center
12:40 37.7375 -78.5067 220° Southwest 367 422 24,000 101 Climbing Washington Center
12:41 37.6561 -78.5953 221° Southwest 373 429 24,000  Level Washington Center
12:42 37.5789 -78.6786 221° Southwest 373 429 24,000  Level Washington Center
12:43 37.4886 -78.7719 219° Southwest 373 429 24,000  Level Washington Center
12:44 37.4092 -78.8600 221° Southwest 373 429 24,000  Level Washington Center
12:45 37.3297 -78.9428 220° Southwest 373 429 24,000  Level Washington Center
12:46 37.2503 -79.0256 220° Southwest 373 429 24,000  Level Washington Center
12:47 37.1747 -79.1081 221° Southwest 373 429 24,000  Level Washington Center
12:48 37.1036 -79.1831 220° Southwest 373 429 24,000  Level Washington Center
12:49 37.0239 -79.2653 219° Southwest 373 429 24,000  Level Washington Center
12:50 36.9483 -79.3472 221° Southwest 373 429 24,000  Level Washington Center
12:51 36.8728 -79.4267 220° Southwest 368 423 24,000  Level Washington Center
12:52 36.7950 -79.5086 220° Southwest 368 423 24,000  Level Washington Center
12:53 36.7131 -79.5925 219° Southwest 368 423 24,000  Level Washington Center
12:54 36.6353 -79.6739 220° Southwest 368 423 24,000  Level Washington Center
12:55 36.5594 -79.7525 220° Southwest 368 423 24,000  Level Washington Center
12:56 36.4858 -79.8314 221° Southwest 368 423 24,000 -606 Level Washington Center
12:59 36.2989 -80.0147 218° Southwest 374 430 22,000 -609 Descending Atlanta Center
13:00 36.2200 -80.0856 216° Southwest 363 418 22,000 -900 Level Atlanta Center
13:01 36.1447 -80.1483 214° Southwest 363 418 20,200 -2,050 Descending Atlanta Center
13:02 36.0656 -80.2192 216° Southwest 363 418 17,900 -2,100 Descending Atlanta Center
13:03 35.9883 -80.2842 214° Southwest 353 406 16,000 -1,525 Descending Atlanta Center
13:03 35.9172 -80.3492 217° Southwest 303 349 14,900 -1,000 Descending Atlanta Center
13:04 35.9192 -80.3464 49° Northeast 338 389 15,000 -1,116 Climbing Atlanta Center
13:04 35.8683 -80.3872 213° Southwest 284 327 14,100 -1,100 Descending Atlanta Center
13:05 35.8561 -80.3981 216° Southwest 308 354 13,900 -1,000 Descending Atlanta Center
13:05 35.8094 -80.4386 215° Southwest 265 305 13,100 -900 Descending Atlanta Center
13:06 35.7950 -80.4494 211° Southwest 289 333 13,000 -764 Descending Atlanta Center
13:06 35.7525 -80.4869 216° Southwest 260 299 12,400 -1,200 Descending Atlanta Center
13:07 35.7339 -80.4981 206° Southwest 276 318 11,800 -1,377 Descending Atlanta Center
13:07 35.6914 -80.5408 219° Southwest 270 311 11,000 -800 Descending Atlanta Center
13:08 35.6728 -80.5519 206° Southwest 276 318 11,000 -787 Level Atlanta Center
13:08 35.6411 -80.6044 233° Southwest 255 293 10,200 -1,200 Descending Atlanta Center
13:09 35.6311 -80.6200 232° Southwest 263 303 9,800 -2,164 Descending Atlanta Center
13:09 35.6075 -80.6797 244° Southwest 247 284 8,000 -2,400 Descending Atlanta Center
13:10 35.5997 -80.6928 234° Southwest 256 295 7,400 -1,900 Descending Atlanta Center
13:10 35.5886 -80.7494 256° West 220 253 6,100 -1,400 Descending Atlanta Center
13:11 35.5850 -80.7650 254° West 236 272 6,000 -1,672 Descending Atlanta Center
13:11 35.5844 -80.8264 269° West 214 246 4,400 -1,900 Descending Atlanta Center
13:12 35.5786 -80.8419 245° Southwest 226 260 4,100 -387 Descending Atlanta Center
13:12 35.5694 -80.8933 258° West 207 238 4,000 -100 Descending Atlanta Center
13:13 35.5656 -80.9089 253° West 220 253 4,000  Level Atlanta Center
13:13 35.5525 -80.9653 254° West 209 241 4,000  Level Atlanta Center
13:14 35.4964 -80.9753 188° South 199 229 4,000  Level Atlanta Center
13:15 35.4506 -80.9744 179° South 155 178 4,000  Level Atlanta Center
13:16 35.4067 -80.9708 176° South 154 177 4,000 -148 Level Atlanta Center
13:17 35.3647 -80.9672 176° South 155 178 3,700 -590 Descending Atlanta Center
13:18 35.3231 -80.9639 176° South 137 158 2,800 -787 Descending Atlanta Center
13:19 35.2917 -80.9625 178° South 110 127 2,100 -694 Descending Atlanta Center
13:20 35.2539 -80.9586 175° South 128 147 1,400 -700 Descending Atlanta Center
13:22 35.2137 -80.9491 39° Northeast  Level Estimated
13:29 35.2137 -80.9491 39° Northeast  Level Estimated